Date,TemperatureHighF,TemperatureAvgF,TemperatureLowF,DewpointHighF,DewpointAvgF,DewpointLowF,HumidityHigh,HumidityAvg,HumidityLow,PressureMaxIn,PressureMinIn,WindSpeedMaxMPH,WindSpeedAvgMPH,GustSpeedMaxMPH,PrecipitationSumIn
2013-1-1,48,44,39,41,35,4,96,76,20,30.12,29.97,16,5,0,0.00
2013-1-2,40,33,30,39,31,27,96,91,79,30.26,29.96,13,3,0,0.00
2013-1-3,34,30,26,31,26,17,97,86,66,30.35,30.21,13,2,0,0.00
2013-1-4,35,26,21,18,16,13,80,68,43,30.43,30.32,18,8,0,0.00
2013-1-5,42,32,24,26,16,8,77,52,31,30.50,30.26,17,3,0,0.00
2013-1-6,41,34,30,32,28,22,93,80,62,30.28,30.13,19,6,0,0.00
2013-1-7,40,31,25,25,22,20,85,71,52,30.55,30.24,15,3,0,0.00
2013-1-8,44,36,28,39,28,23,96,76,56,30.53,30.44,4,0,0,0.00
2013-1-9,55,49,39,49,45,38,98,86,67,30.49,30.41,14,3,0,0.00
2013-1-10,55,49,43,50,43,30,97,81,57,30.55,30.42,8,0,0,0.00
2013-1-11,52,45,39,52,44,36,99,97,74,30.42,30.20,5,1,0,0.01
2013-1-12,64,58,52,58,55,52,99,89,74,30.22,30.09,13,2,0,0.00
2013-1-13,59,56,54,56,54,53,99,95,87,30.13,30.04,5,1,0,0.00
2013-1-14,56,53,44,56,53,44,99,98,96,30.20,30.05,6,1,0,0.00
2013-1-15,46,40,36,46,40,36,99,99,99,30.24,30.11,2,0,0,0.00
2013-1-16,54,48,38,49,46,37,100,94,79,30.11,29.97,10,1,0,0.00
2013-1-17,49,36,26,47,36,25,98,97,93,30.26,29.98,7,1,0,0.00
2013-1-18,28,24,21,26,22,19,95,92,89,30.67,30.28,0,0,0,0.00
2013-1-19,40,32,24,36,25,17,91,78,40,30.61,30.20,9,1,0,0.00
2013-1-20,41,37,34,29,25,17,75,64,43,30.21,30.11,25,9,0,0.00
2013-1-21,40,34,22,23,17,4,63,52,43,30.14,30.00,23,7,0,0.00
2013-1-22,21,15,11,4,-4,-11,55,42,31,30.40,30.02,22,8,0,0.00
2013-1-23,32,22,13,23,8,-9,70,56,35,30.45,30.11,20,4,0,0.00
2013-1-24,34,21,10,25,9,-1,74,61,42,30.61,29.96,30,10,0,0.00
2013-1-25,33,18,10,31,13,0,96,81,61,30.61,30.15,14,3,0,0.00
2013-1-26,36,28,24,29,22,19,91,78,56,30.45,30.17,12,4,0,0.00
2013-1-27,29,26,20,24,21,17,92,81,64,30.64,30.45,4,0,0,0.00
2013-1-28,50,40,28,42,35,25,95,81,67,30.52,30.25,11,3,0,0.00
2013-1-29,62,54,50,53,45,38,98,73,53,30.25,30.03,16,3,0,0.00
2013-1-30,57,53,40,57,53,39,100,99,92,30.02,29.43,16,3,0,0.00
2013-1-31,40,27,23,38,20,14,93,76,61,30.08,29.45,26,10,0,0.00
2013-2-1,33,18,10,26,7,-3,92,65,46,30.52,29.95,19,8,0,0.00
2013-2-2,28,21,14,25,11,-6,93,66,35,30.48,30.11,9,2,0,0.00
2013-2-3,31,26,22,25,21,17,92,81,71,30.10,29.93,33,9,0,0.00
2013-2-4,37,28,19,22,18,12,81,65,52,30.22,30.04,14,2,0,0.00
2013-2-5,41,38,36,33,28,19,81,68,46,30.04,29.96,15,4,0,0.00
2013-2-6,46,38,31,31,22,12,82,55,26,30.34,30.03,10,2,0,0.00
2013-2-7,39,35,32,36,29,20,97,81,53,30.38,30.11,3,0,0,0.00
2013-2-8,43,34,26,41,31,21,99,88,59,30.11,29.93,26,7,0,0.00
2013-2-9,46,33,24,22,12,3,82,48,18,30.45,30.07,34,8,0,0.00
2013-2-10,44,36,31,32,19,12,96,54,35,30.47,30.21,5,0,0,0.00
2013-2-11,51,45,34,51,38,19,99,79,40,30.20,29.99,20,5,0,0.00
2013-2-12,49,39,32,31,19,11,90,47,22,30.14,29.98,20,6,0,0.00
2013-2-13,37,34,30,37,33,27,98,94,81,30.00,29.68,19,3,0,0.00
2013-2-14,44,34,25,28,24,20,89,70,47,30.14,29.90,20,5,0,0.00
2013-2-15,47,38,28,33,29,25,92,73,50,30.15,30.00,15,4,0,0.00
2013-2-16,28,23,16,25,17,7,88,76,59,30.04,29.92,17,7,0,0.00
2013-2-17,25,18,10,11,4,0,87,57,38,30.35,30.04,20,9,0,0.00
2013-2-18,43,31,21,22,14,1,67,50,36,30.46,30.20,10,2,0,0.00
2013-2-19,40,32,27,37,24,9,98,72,38,30.21,29.93,14,4,0,0.00
2013-2-20,37,28,22,12,4,-8,57,39,19,30.24,30.03,23,9,0,0.00
2013-2-21,50,34,21,24,8,1,69,36,16,30.31,30.18,10,2,0,0.00
2013-2-22,32,29,27,32,28,25,98,95,74,30.31,30.18,3,0,0,0.00
2013-2-23,49,44,32,44,40,31,99,88,65,30.19,29.85,6,1,0,0.00
2013-2-24,45,39,32,38,27,18,88,65,40,30.14,29.86,15,5,0,0.00
2013-2-25,36,29,26,23,21,17,82,70,58,30.26,30.09,10,1,0,0.00
2013-2-26,38,32,25,38,31,17,98,94,65,30.22,29.67,10,2,0,0.00
2013-2-27,46,36,31,35,30,25,98,77,55,29.85,29.69,17,6,0,0.00
2013-2-28,32,28,25,27,23,20,91,83,71,29.96,29.73,16,7,0,0.00
2013-3-1,32,28,26,24,23,21,88,80,72,30.01,29.93,14,6,0,0.00
2013-3-2,30,25,18,23,20,12,87,80,63,30.02,29.93,19,6,0,0.00
2013-3-3,26,20,15,16,12,9,80,72,60,30.11,29.96,21,10,0,0.00
2013-3-4,43,29,17,11,8,1,74,47,22,30.23,30.02,21,7,0,0.00
2013-3-5,42,38,32,39,28,10,97,71,32,30.12,29.64,11,1,0,0.00
2013-3-6,31,24,21,29,20,16,92,85,74,30.22,29.64,29,12,0,0.00
2013-3-7,32,26,22,24,21,18,94,84,70,30.39,30.20,23,12,0,0.00
2013-3-8,40,30,23,23,20,18,85,69,48,30.43,30.33,18,7,0,0.00
2013-3-9,54,41,29,28,23,20,73,51,31,30.43,30.31,4,0,0,0.00
2013-3-10,56,46,39,32,29,26,63,53,34,30.33,30.21,4,1,0,0.00
2013-3-11,47,43,39,46,39,31,97,86,61,30.21,29.93,4,0,0,0.00
2013-3-12,48,42,34,47,37,25,98,84,64,30.06,29.77,15,5,0,0.00
2013-3-13,34,30,21,27,20,11,85,67,52,30.25,30.02,22,7,0,0.00
2013-3-14,38,26,17,15,12,8,78,58,33,30.38,30.21,30,8,0,0.00
2013-3-15,55,41,28,37,25,12,74,54,35,30.29,29.95,15,4,0,0.00
2013-3-16,66,56,50,49,43,38,87,63,44,29.94,29.71,17,6,0,0.00
2013-3-17,53,46,32,47,43,31,97,87,76,30.16,29.87,6,1,0,0.00
2013-3-18,41,32,29,40,32,29,99,97,97,30.20,29.94,4,1,0,0.00
2013-3-19,47,41,33,43,25,2,98,59,25,30.14,29.89,19,8,0,0.00
2013-3-20,44,34,26,25,7,1,87,36,18,30.17,29.87,17,6,0,0.00
2013-3-21,28,20,15,24,9,5,90,62,45,30.10,29.80,19,7,0,0.00
2013-3-22,44,26,13,9,6,1,76,47,18,30.19,30.07,10,4,0,0.00
2013-3-23,46,37,32,36,28,6,83,69,33,30.11,29.98,10,2,0,0.00
2013-3-24,37,33,28,33,31,27,97,92,75,29.99,29.60,3,0,0,0.00
2013-3-25,28,26,24,27,22,19,96,86,76,29.89,29.59,20,1,0,0.00
2013-3-26,32,26,23,23,21,18,87,79,67,30.23,29.89,19,9,0,0.00
2013-3-27,33,26,23,22,18,15,89,70,55,30.37,30.22,15,7,0,0.00
2013-3-28,40,31,24,23,18,16,72,60,43,30.41,30.30,13,6,0,0.00
2013-3-29,47,37,29,27,19,12,66,50,26,30.42,30.28,10,4,0,0.00
2013-3-30,54,44,35,35,27,23,72,53,32,30.32,30.11,4,0,0,0.00
2013-3-31,52,45,41,48,42,34,99,91,70,30.11,29.89,9,2,0,0.00
2013-4-1,50,45,36,44,35,28,95,71,53,30.04,29.87,17,6,0,0.00
2013-4-2,47,36,28,29,18,9,79,51,26,30.24,30.04,10,4,0,0.00
2013-4-3,51,37,27,15,12,8,55,36,18,30.41,30.21,9,3,0,0.00
2013-4-4,37,32,29,32,19,6,97,65,31,30.40,30.09,3,0,0,0.00
2013-4-5,51,38,32,38,33,30,98,83,51,30.15,30.02,14,5,0,0.00
2013-4-6,57,47,38,33,30,26,70,53,38,30.28,30.12,12,2,0,0.00
2013-4-7,62,51,39,43,38,31,80,63,46,30.25,30.13,7,1,0,0.00
2013-4-8,70,58,49,48,43,39,71,60,44,30.19,30.06,5,1,0,0.00
2013-4-9,76,64,55,52,48,46,73,58,36,30.22,30.08,7,1,0,0.00
2013-4-10,79,67,59,54,52,50,75,59,37,30.12,29.95,11,2,0,0.00
2013-4-11,72,62,54,58,53,51,97,74,49,29.96,29.72,6,1,0,0.00
2013-4-12,64,56,46,60,49,32,99,79,36,29.87,29.62,15,6,0,0.00
2013-4-13,62,52,42,36,31,24,71,48,25,30.09,29.82,18,7,0,0.00
2013-4-14,68,57,48,46,35,27,79,45,28,30.13,30.00,6,1,0,0.00
2013-4-15,52,49,46,52,48,46,99,97,82,30.27,29.99,4,0,0,0.00
2013-4-16,70,58,51,59,54,51,99,88,63,30.33,30.21,3,0,0,0.00
2013-4-17,68,59,55,56,54,52,96,84,59,30.29,30.16,16,2,0,0.01
2013-4-18,68,60,56,58,55,53,97,84,61,30.20,29.98,5,1,0,0.00
2013-4-19,60,54,39,59,54,34,99,97,80,29.97,29.73,14,3,0,0.00
2013-4-20,52,40,30,32,26,21,79,58,36,30.38,29.89,20,8,0,0.00
2013-4-21,52,43,35,33,27,20,72,53,44,30.54,30.36,4,1,0,0.00
2013-4-22,55,42,30,36,29,22,93,62,34,30.52,30.34,5,1,0,0.00
2013-4-23,63,49,36,45,39,28,90,71,50,30.36,30.15,6,1,0,0.00
2013-4-24,65,55,46,53,48,44,94,80,58,30.15,30.01,11,2,0,0.00
2013-4-25,61,46,31,45,29,17,95,60,18,30.38,30.09,11,5,0,0.00
2013-4-26,60,49,37,35,30,26,67,50,33,30.48,30.34,11,2,0,0.00
2013-4-27,55,50,46,47,41,32,98,72,49,30.40,30.28,4,0,0,0.00
2013-4-28,49,46,44,48,46,44,99,99,98,30.29,30.10,3,0,0,0.00
2013-4-29,60,53,48,55,51,47,99,94,75,30.12,30.01,5,0,0,0.00
2013-4-30,66,56,51,57,52,50,99,88,66,30.24,30.03,3,0,0,0.00
2013-5-1,60,52,48,51,49,47,97,88,68,30.38,30.19,4,1,0,0.00
2013-5-2,54,50,46,53,49,46,99,97,93,30.38,30.30,4,0,0,0.00
2013-5-3,58,50,43,48,44,41,98,81,57,30.31,30.19,9,1,0,0.00
2013-5-4,53,44,39,44,39,36,96,85,53,30.21,30.11,5,2,0,0.00
2013-5-5,47,43,39,47,42,34,99,94,80,30.15,29.99,9,2,0,0.00
2013-5-6,53,49,46,53,48,45,99,99,97,29.99,29.88,11,1,0,0.00
2013-5-7,56,48,45,53,47,44,99,97,83,29.98,29.90,11,1,0,0.00
2013-5-8,56,50,45,53,48,44,98,94,85,30.08,29.96,13,2,0,0.00
2013-5-9,70,58,49,54,49,47,97,74,44,30.13,30.03,11,4,0,0.00
2013-5-10,72,63,59,56,52,46,91,68,52,30.12,29.94,7,1,0,0.00
2013-5-11,66,60,55,57,53,51,90,79,60,29.95,29.83,8,2,0,0.00
2013-5-12,55,48,41,50,36,27,93,64,37,30.12,29.86,14,6,0,0.00
2013-5-13,56,45,37,29,26,21,68,49,28,30.23,30.08,15,5,0,0.00
2013-5-14,65,52,40,45,35,26,70,52,41,30.29,30.08,4,1,0,0.00
2013-5-15,81,68,56,54,50,44,76,55,31,30.08,29.97,21,7,0,0.00
2013-5-16,74,66,60,53,48,40,67,55,33,30.06,29.90,16,6,0,0.00
2013-5-17,72,63,58,59,56,50,96,77,59,30.13,30.01,9,1,0,0.00
2013-5-18,61,59,57,60,58,56,99,97,95,30.19,30.09,2,0,0,0.00
2013-5-19,63,60,58,63,60,58,100,99,99,30.16,30.07,2,0,0,0.00
2013-5-20,69,62,59,63,60,58,100,93,69,30.16,30.05,6,1,0,0.00
2013-5-21,78,68,60,65,62,56,98,83,58,30.09,29.96,14,1,0,0.00
2013-5-22,72,63,55,65,59,51,97,87,61,30.03,29.92,8,1,0,0.00
2013-5-23,72,61,55,63,56,52,97,86,52,29.98,29.86,12,3,0,0.00
2013-5-24,56,51,43,52,41,31,94,73,41,30.26,29.87,23,8,0,0.00
2013-5-25,64,51,40,37,32,24,77,51,28,30.36,30.25,12,4,0,0.00
2013-5-26,66,54,46,48,41,36,73,62,45,30.33,30.22,11,2,0,0.00
2013-5-27,71,60,52,57,50,39,83,69,57,30.31,30.19,5,0,0,0.00
2013-5-28,72,64,57,62,58,54,93,80,67,30.24,30.14,3,0,0,0.00
2013-5-29,75,66,58,63,59,54,96,78,60,30.26,30.16,4,0,0,0.00
2013-5-30,74,66,59,62,59,55,93,79,61,30.29,30.20,4,0,0,0.00
2013-5-31,73,65,59,62,59,56,92,80,65,30.24,30.15,3,0,0,0.00
2013-6-1,75,67,62,64,61,58,97,82,61,30.15,30.04,5,0,0,0.00
2013-6-2,69,63,60,64,61,58,98,94,84,30.06,29.93,4,0,0,0.00
2013-6-3,71,64,60,61,59,55,99,85,67,30.03,29.90,7,2,0,0.00
2013-6-4,66,60,57,60,56,54,92,86,79,30.17,30.01,0,0,0,0.00
2013-6-5,62,60,57,61,59,55,99,97,93,30.17,30.06,0,0,0,0.00
2013-6-6,66,62,57,65,62,57,99,99,99,30.07,29.83,2,0,0,0.00
2013-6-7,68,62,59,64,61,55,100,95,80,29.90,29.69,14,2,0,0.00
2013-6-8,70,62,55,65,59,54,98,89,75,30.14,29.87,3,0,0,0.00
2013-6-9,72,65,61,66,62,58,99,92,73,30.19,30.08,3,0,0,0.00
2013-6-10,67,63,61,67,63,59,100,98,85,30.08,29.90,5,0,0,0.00
2013-6-11,71,64,58,62,58,56,98,84,69,30.05,29.93,11,4,0,0.00
2013-6-12,82,72,63,69,64,58,86,76,57,30.03,29.91,12,4,0,0.00
2013-6-13,77,69,58,65,62,54,90,78,61,29.91,29.68,18,7,0,0.00
2013-6-14,68,60,55,53,51,49,90,73,56,30.10,29.78,13,4,0,0.00
2013-6-15,73,64,56,60,54,49,87,72,50,30.20,30.09,7,1,0,0.00
2013-6-16,73,67,62,65,60,56,88,80,68,30.14,30.05,8,1,0,0.00
2013-6-17,72,67,62,67,63,56,97,86,73,30.06,29.98,6,2,0,0.00
2013-6-18,66,63,60,66,62,58,99,97,92,29.97,29.83,12,2,0,0.00
2013-6-19,70,62,57,63,59,56,98,88,68,30.17,29.97,3,0,0,0.00
2013-6-20,68,63,60,63,61,58,99,92,81,30.30,30.15,1,0,0,0.00
2013-6-21,73,64,58,63,60,57,97,87,68,30.32,30.24,2,0,0,0.00
2013-6-22,73,64,56,63,58,53,93,81,63,30.29,30.18,2,0,0,0.00
2013-6-23,75,68,62,66,63,61,98,86,68,30.25,30.16,3,0,0,0.00
2013-6-24,75,68,63,67,64,61,96,86,72,30.24,30.13,3,0,0,0.00
2013-6-25,78,70,65,68,64,60,91,81,57,30.16,30.05,7,2,0,0.00
2013-6-26,77,69,64,68,64,61,96,85,66,30.07,29.94,10,2,0,0.00
2013-6-27,74,68,62,67,64,58,97,87,74,29.95,29.78,12,3,0,0.00
2013-6-28,75,69,64,67,62,59,93,80,62,29.81,29.64,16,5,0,0.00
2013-6-29,74,67,62,65,61,57,92,80,68,29.75,29.62,10,1,0,0.00
2013-6-30,73,66,59,66,62,58,98,89,74,29.89,29.71,2,0,0,0.00
2013-7-1,68,63,59,66,63,59,99,97,90,30.00,29.84,3,0,0,0.00
2013-7-2,66,64,62,66,63,62,100,99,99,30.18,29.98,2,0,0,0.00
2013-7-3,67,64,63,67,64,63,100,100,100,30.24,30.15,2,0,0,0.00
2013-7-4,69,65,63,69,65,63,100,100,100,30.30,30.20,2,0,0,0.00
2013-7-5,70,66,63,70,65,63,100,99,94,30.29,30.21,3,0,0,0.00
2013-7-6,71,66,64,69,65,64,100,99,89,30.27,30.16,4,0,0,0.00
2013-7-7,70,66,63,70,65,62,100,99,90,30.21,30.12,4,0,0,0.00
2013-7-8,74,67,61,68,63,60,97,88,69,30.23,30.16,9,1,0,0.00
2013-7-9,77,70,66,68,65,60,96,84,68,30.20,30.09,4,0,0,0.00
2013-7-10,74,69,65,71,66,63,99,92,82,30.14,29.98,2,0,0,0.00
2013-7-11,70,67,63,69,66,62,99,96,88,30.00,29.92,5,1,0,0.00
2013-7-12,71,64,61,66,62,59,99,95,76,30.08,29.93,4,0,0,0.00
2013-7-13,68,63,60,65,62,59,99,96,88,30.19,30.05,0,0,0,0.00
2013-7-14,72,67,64,68,66,64,100,97,85,30.36,30.16,4,0,0,0.00
2013-7-15,75,69,64,67,66,63,100,90,72,30.39,30.32,1,0,0,0.00
2013-7-16,81,71,65,69,65,60,95,80,60,30.37,30.28,5,1,0,0.00
2013-7-17,79,71,64,70,67,64,98,88,70,30.31,30.19,5,1,0,0.00
2013-7-18,78,72,66,72,68,65,98,88,75,30.24,30.10,2,0,0,0.00
2013-7-19,76,71,66,72,68,64,97,91,78,30.15,30.03,5,0,0,0.00
2013-7-20,76,70,65,72,67,63,98,91,76,30.08,29.96,10,1,0,0.00
2013-7-21,77,69,65,70,66,63,99,89,70,30.04,29.94,5,1,0,0.00
2013-7-22,72,67,64,69,66,62,100,94,83,30.00,29.86,6,1,0,0.00
2013-7-23,75,68,63,66,64,62,98,87,69,29.89,29.80,14,4,0,0.00
2013-7-24,76,69,64,67,64,62,96,86,66,29.91,29.79,9,2,0,0.00
2013-7-25,69,65,60,64,62,58,98,91,81,30.09,29.89,2,0,0,0.00
2013-7-26,71,65,59,67,62,56,98,90,82,30.15,30.06,3,0,0,0.00
2013-7-27,66,63,60,66,63,60,100,99,98,30.08,29.96,4,0,0,0.00
2013-7-28,72,65,59,66,61,56,100,89,61,30.08,29.96,6,1,0,0.00
2013-7-29,73,62,54,62,55,50,97,78,54,30.27,30.06,10,1,0,0.00
2013-7-30,68,62,58,63,58,52,95,84,76,30.29,30.21,4,0,0,0.00
2013-7-31,64,62,60,63,60,55,100,93,82,30.21,30.03,4,0,0,0.00
2013-8-1,75,67,63,66,63,60,100,86,66,30.03,29.92,7,2,0,0.00
2013-8-2,74,66,59,65,61,56,98,85,63,30.09,29.97,5,1,0,0.00
2013-8-3,75,68,64,66,63,61,97,84,65,30.07,29.99,7,1,0,0.00
2013-8-4,72,66,61,64,60,53,98,83,53,30.11,29.96,11,3,0,0.00
2013-8-5,70,64,57,66,60,55,97,87,75,30.13,30.03,2,0,0,0.00
2013-8-6,70,66,63,66,64,63,100,95,85,30.07,29.98,2,0,0,0.00
2013-8-7,66,65,63,66,65,63,100,100,98,30.12,30.05,1,0,0,0.00
2013-8-8,70,67,65,70,67,65,100,100,100,30.11,30.04,2,0,0,0.00
2013-8-9,77,70,65,71,67,65,100,92,78,30.10,30.03,5,0,0,0.00
2013-8-10,75,69,64,69,66,61,97,89,76,30.15,30.06,11,3,0,0.00
2013-8-11,77,70,66,69,65,61,93,83,74,30.18,30.07,9,2,0,0.00
2013-8-12,76,68,63,70,66,62,98,91,76,30.11,30.00,10,2,0,0.00
2013-8-13,71,66,63,68,64,62,98,93,81,30.01,29.85,11,3,0,0.00
2013-8-14,66,59,54,60,54,49,97,83,61,30.17,29.91,12,3,0,0.00
2013-8-15,61,55,50,56,51,46,96,87,78,30.23,30.13,2,0,0,0.00
2013-8-16,64,57,51,58,54,50,97,89,77,30.24,30.16,2,0,0,0.00
2013-8-17,60,56,52,60,55,51,100,96,85,30.26,30.20,0,0,0,0.00
2013-8-18,66,61,59,65,61,59,100,99,96,30.26,30.18,1,0,0,0.00
2013-8-19,65,63,60,65,63,61,100,100,99,30.23,30.14,2,0,0,0.00
2013-8-20,70,65,61,67,64,61,100,96,86,30.23,30.15,1,0,0,0.00
2013-8-21,71,66,63,68,65,62,100,95,86,30.28,30.15,1,0,0,0.00
2013-8-22,75,68,63,66,63,61,95,84,66,30.22,30.06,8,2,0,0.00
2013-8-23,72,66,62,65,63,59,97,90,74,30.15,30.02,8,2,0,0.00
2013-8-24,69,61,56,60,56,51,99,83,62,30.38,30.16,3,0,0,0.00
2013-8-25,66,60,56,58,56,52,97,86,72,30.46,30.34,0,0,0,0.00
2013-8-26,72,63,56,64,58,54,96,83,65,30.39,30.17,7,1,0,0.00
2013-8-27,74,67,62,67,63,60,95,87,72,30.17,30.06,9,4,0,0.00
2013-8-28,76,70,66,68,65,64,93,85,69,30.06,29.94,12,4,0,0.00
2013-8-29,79,71,66,71,67,65,97,86,68,30.05,29.88,18,4,0,0.00
2013-8-30,72,66,63,68,65,62,99,95,85,30.10,29.99,1,0,0,0.00
2013-8-31,75,68,65,70,66,62,99,90,72,30.00,29.91,6,1,0,0.00
2013-9-1,74,68,63,68,64,60,98,90,76,29.96,29.85,5,1,0,0.00
2013-9-2,74,68,64,67,64,63,97,87,70,29.96,29.86,10,2,0,0.00
2013-9-3,73,67,60,64,62,55,94,84,65,30.05,29.84,10,3,0,0.00
2013-9-4,72,64,57,64,58,53,93,82,68,30.17,30.02,3,1,0,0.00
2013-9-5,74,65,59,59,53,41,85,66,36,30.20,30.11,6,2,0,0.00
2013-9-6,67,62,58,61,58,56,94,88,79,30.24,30.15,5,0,0,0.00
2013-9-7,70,62,55,65,58,53,94,87,76,30.18,30.02,7,1,0,0.00
2013-9-8,73,66,61,64,61,60,95,84,65,30.05,29.99,7,2,0,0.00
2013-9-9,72,67,63,67,64,61,95,89,82,30.20,30.05,0,0,0,0.00
2013-9-10,74,68,63,68,64,61,98,89,74,30.28,30.19,2,0,0,0.00
2013-9-11,75,69,66,68,65,60,93,86,74,30.25,30.10,4,1,0,0.00
2013-9-12,76,68,62,69,64,59,92,85,68,30.11,29.87,13,3,0,0.00
2013-9-13,64,59,50,60,53,46,96,80,60,30.00,29.80,14,5,0,0.00
2013-9-14,63,52,45,54,48,43,93,83,63,30.20,29.99,9,1,0,0.00
2013-9-15,65,57,50,58,54,49,96,89,75,30.28,30.18,3,0,0,0.00
2013-9-16,67,61,54,60,56,53,96,85,74,30.25,30.13,10,2,0,0.00
2013-9-17,56,53,49,53,50,48,96,90,84,30.39,30.25,1,0,0,0.00
2013-9-18,58,52,48,55,51,46,97,93,85,30.35,30.24,3,0,0,0.00
2013-9-19,63,59,54,62,58,54,100,97,91,30.24,30.13,5,1,0,0.00
2013-9-20,72,65,61,66,62,59,99,90,78,30.13,29.96,7,1,0,0.00
2013-9-21,62,60,53,62,60,53,100,100,99,29.96,29.73,9,2,0,0.00
2013-9-22,62,54,47,55,51,47,100,90,73,30.01,29.80,12,3,0,0.00
2013-9-23,61,53,48,55,51,46,97,91,78,30.13,30.00,3,0,0,0.00
2013-9-24,66,58,53,60,55,52,99,91,72,30.13,29.99,3,0,0,0.00
2013-9-25,57,55,51,57,55,51,100,99,97,29.99,29.92,1,0,0,0.00
2013-9-26,64,56,51,56,53,50,98,88,65,30.11,29.96,2,0,0,0.00
2013-9-27,64,56,51,56,51,48,91,85,66,30.25,30.11,1,0,0,0.00
2013-9-28,59,53,48,54,51,46,98,93,83,30.31,30.22,1,0,0,0.00
2013-9-29,60,53,47,56,51,45,99,93,84,30.25,30.10,3,0,0,0.00
2013-9-30,60,55,50,56,53,49,96,91,84,30.15,30.07,3,0,0,0.00
2013-10-1,67,60,55,58,54,52,92,82,62,30.19,30.10,6,1,0,0.00
2013-10-2,69,62,56,58,56,53,91,80,66,30.21,30.12,6,2,0,0.00
2013-10-3,71,64,60,61,58,55,90,81,69,30.18,30.10,1,0,0,0.00
2013-10-4,71,64,60,63,59,56,93,83,68,30.20,30.11,5,1,0,0.00
2013-10-5,75,66,62,63,60,57,92,80,62,30.19,30.08,2,0,0,0.00
2013-10-6,68,63,60,63,60,59,97,90,80,30.08,29.91,1,0,0,0.00
2013-10-7,62,56,47,61,54,43,100,92,78,30.12,29.83,11,3,0,0.00
2013-10-8,58,48,41,49,43,39,95,84,63,30.34,30.10,5,0,0,0.00
2013-10-9,59,49,42,46,42,39,93,78,53,30.35,30.22,3,0,0,0.00
2013-10-10,57,52,44,57,49,38,99,89,77,30.22,30.06,11,3,0,0.00
2013-10-11,64,57,52,54,51,48,94,80,65,30.05,29.97,12,6,0,0.00
2013-10-12,61,57,54,57,55,53,100,93,84,30.14,29.99,5,1,0,0.00
2013-10-13,62,58,55,59,57,55,100,97,83,30.27,30.13,4,0,0,0.00
2013-10-14,59,56,53,58,55,52,100,99,92,30.31,30.22,3,0,0,0.00
2013-10-15,61,53,46,54,49,46,99,88,66,30.27,30.13,2,0,0,0.00
2013-10-16,63,54,48,56,51,46,97,90,74,30.13,30.00,3,0,0,0.00
2013-10-17,58,56,52,58,56,51,100,96,88,29.99,29.86,7,1,0,0.00
2013-10-18,59,50,40,50,46,39,97,88,62,30.08,29.96,10,1,0,0.00
2013-10-19,56,51,46,53,48,39,100,90,61,30.01,29.86,6,1,0,0.00
2013-10-20,55,43,34,41,36,31,94,76,51,30.21,29.98,7,1,0,0.00
2013-10-21,57,48,40,48,42,35,94,82,68,30.20,30.02,2,0,0,0.00
2013-10-22,58,52,48,49,45,42,95,76,58,30.04,29.84,12,3,0,0.00
2013-10-23,48,41,31,46,35,25,93,79,57,30.09,29.75,17,7,0,0.00
2013-10-24,41,34,29,32,28,24,97,80,66,30.27,30.09,14,3,0,0.00
2013-10-25,34,30,26,31,26,22,98,87,71,30.49,30.25,9,4,0,0.00
2013-10-26,46,36,25,34,26,20,85,67,53,30.46,30.11,12,1,0,0.00
2013-10-27,57,47,39,43,36,33,83,69,46,30.19,30.09,12,3,0,0.00
2013-10-28,54,50,47,50,48,43,98,92,83,30.32,30.14,11,1,0,0.00
2013-10-29,62,53,48,52,48,47,97,84,64,30.40,30.28,4,0,0,0.00
2013-10-30,63,56,51,54,52,48,96,84,70,30.31,30.20,10,1,0,0.00
2013-10-31,57,55,54,57,53,51,100,93,86,30.21,29.85,3,1,0,0.00
2013-11-1,65,58,51,57,53,40,100,85,59,29.84,29.68,12,3,0,0.00
2013-11-2,52,47,40,44,36,30,80,68,53,30.01,29.73,17,8,0,0.00
2013-11-3,46,39,35,34,31,28,86,73,58,30.45,30.00,14,4,0,0.00
2013-11-4,46,38,32,29,26,21,76,64,44,30.63,30.45,3,0,0,0.00
2013-11-5,50,40,30,43,34,25,98,81,52,30.66,30.47,1,0,0,0.00
2013-11-6,56,48,44,49,47,44,100,94,77,30.46,30.17,4,0,0,0.00
2013-11-7,53,45,32,51,41,26,98,86,70,30.18,30.02,23,6,0,0.00
2013-11-8,40,34,29,26,21,18,81,61,43,30.43,30.17,16,5,0,0.01
2013-11-9,46,39,31,27,21,11,63,51,25,30.43,30.22,14,2,0,0.00
2013-11-10,53,45,35,35,26,15,73,50,30,30.30,30.16,24,9,0,0.00
2013-11-11,52,43,32,20,14,-10,60,33,11,30.41,30.15,9,2,0,0.00
2013-11-12,49,34,18,35,20,9,84,60,20,30.53,30.07,25,11,0,0.00
2013-11-13,34,25,16,14,11,1,79,59,29,30.66,30.52,13,6,0,0.00
2013-11-14,50,40,29,18,9,-6,46,29,15,30.55,30.35,11,2,0,0.00
2013-11-15,51,44,37,45,24,-2,99,55,15,30.39,30.24,3,1,0,0.00
2013-11-16,50,47,46,50,47,45,100,100,99,30.32,30.23,4,0,0,0.00
2013-11-17,54,50,48,54,51,48,100,100,100,30.24,29.90,3,0,0,0.00
2013-11-18,55,48,36,55,39,23,100,72,45,30.07,29.86,17,8,0,0.00
2013-11-19,43,34,28,25,22,18,74,61,38,30.39,30.04,18,5,0,0.00
2013-11-20,41,32,25,26,24,21,83,72,54,30.56,30.35,4,1,0,0.00
2013-11-21,48,41,31,46,39,26,99,94,78,30.59,30.45,1,0,0,0.00
2013-11-22,54,51,44,54,50,44,100,100,97,30.45,30.14,9,1,0,0.00
2013-11-23,50,39,24,50,33,14,100,80,51,30.27,30.13,15,8,0,0.00
2013-11-24,23,18,14,13,2,-6,70,53,28,30.66,30.28,22,7,0,0.00
2013-11-25,28,22,16,20,3,-16,84,45,20,30.64,30.44,3,0,0,0.00
2013-11-26,42,36,24,42,36,21,100,99,86,30.43,29.68,13,1,0,0.00
2013-11-27,39,24,15,39,21,9,100,89,73,30.27,29.66,26,11,0,0.00
2013-11-28,35,24,13,18,12,0,84,63,35,30.58,30.27,15,4,0,0.00
2013-11-29,44,32,26,25,16,0,72,52,26,30.71,30.50,13,2,0,0.00
2013-11-30,36,27,20,21,19,16,83,73,53,30.74,30.45,3,0,0,0.00
2013-12-1,48,40,27,30,24,10,75,55,29,30.45,30.08,9,2,0,0.00
2013-12-2,45,40,37,36,33,28,83,77,68,30.07,29.88,2,0,0,0.00
2013-12-3,50,44,38,44,40,32,99,88,76,30.00,29.91,3,0,0,0.00
2013-12-4,51,47,45,51,47,44,100,100,99,30.11,29.97,5,0,0,0.00
2013-12-5,57,54,51,57,54,51,100,100,100,30.13,30.01,3,0,0,0.00
2013-12-6,60,58,51,60,58,51,100,100,100,30.04,29.93,13,2,0,0.00
2013-12-7,53,38,29,52,37,28,100,95,83,30.52,30.00,13,4,0,0.00
2013-12-8,31,28,27,31,28,26,100,98,97,30.50,30.34,2,0,0,0.00
2013-12-9,51,43,31,51,41,29,100,95,61,30.32,30.05,13,3,0,0.00
2013-12-10,43,14,27,40,-50,-100,94,31,72,30.29,29.93,17,-612,0,0.00
2013-12-11,39,10,34,19,-69,-100,46,10,28,30.43,30.12,9,-722,0,0.00
2013-12-12,29,6,25,11,-76,-100,57,10,38,30.47,30.12,11,-775,0,0.00
2013-12-13,39,10,31,19,-67,-100,55,13,42,30.41,30.12,3,-715,0,0.00
2013-12-14,-200,0,200,-100,-100,-100,0,0,100,30.29,29.65,0,-999,0,0.00
2013-12-15,30,7,27,26,-71,-100,86,19,82,30.12,29.60,19,-768,0,0.00
2013-12-16,43,14,39,27,-58,-100,63,18,48,30.18,29.92,9,-665,0,0.00
2013-12-17,46,21,32,35,-36,-100,95,32,52,30.16,29.94,12,-503,0,0.00
2013-12-18,35,14,23,15,-49,-100,64,21,35,30.41,29.96,12,-545,0,0.00
2013-12-19,55,25,43,26,-37,-100,47,19,27,30.39,30.15,3,-488,0,0.00
2013-12-20,51,19,45,36,-48,-100,69,23,44,30.24,30.07,3,-609,0,0.00
2013-12-21,54,13,49,54,-62,-100,100,25,96,30.16,29.98,4,-749,0,0.00
2013-12-22,-200,0,200,-100,-100,-100,0,0,100,30.05,29.92,0,-999,0,0.00
2013-12-23,-200,0,200,-100,-100,-100,0,0,100,30.07,29.95,0,-999,0,0.00
2013-12-24,26,9,20,22,-58,-100,87,27,66,30.49,30.02,17,-643,0,0.00
2013-12-25,28,6,23,7,-77,-100,48,9,34,30.52,30.14,4,-778,0,0.00
2013-12-26,37,10,30,21,-63,-100,67,17,47,30.44,30.09,14,-693,0,0.00
2013-12-27,42,18,31,19,-45,-100,48,20,37,30.53,30.25,3,-526,0,0.00
2013-12-28,48,18,42,23,-52,-100,47,13,21,30.44,30.11,3,-589,0,0.00
2013-12-29,44,12,38,42,-58,-100,93,27,86,30.13,29.67,22,-694,0,0.00
2013-12-30,-200,0,200,-100,-100,-100,0,0,100,29.99,29.84,0,-999,0,0.00
2013-12-31,32,13,25,19,-50,-100,72,26,52,30.46,29.95,16,-565,0,0.00
2014-1-1,36,14,30,25,-45,-100,82,31,55,30.43,30.12,2,-551,0,0.00
2014-1-2,42,34,15,41,27,10,97,77,45,30.22,29.66,18,5,0,0.00